Weather History for Fort Smith, AR

Change the Weather History Date:

Sunday, February 23, 2014

  Actual Average Record
Temperature  
Mean Temperature 47 °F 47 °F  
Max Temperature 56 °F 58 °F 81 °F (1982)
Min Temperature 37 °F 35 °F 13 °F (1899)
Degree Days  
Heating Degree Days 18 18  
Month to date heating degree days 572 495  
Since 1 July heating degree days 2816 2586  
Moisture  
Dew Point 35 °F    
Average Humidity 63    
Maximum Humidity 79    
Minimum Humidity 47    
Precipitation  
Precipitation 0.00 in 0.10 in 2.80 in (1985)
Month to date precipitation 0.94 2.24  
Year to date precipitation 1.73 5.05  
Sea Level Pressure  
Sea Level Pressure 30.04 in    
Wind  
Wind Speed 6 mph (NE)    
Max Wind Speed 13 mph    
Max Gust Speed 15 mph    
Visibility 10 miles    
Events      
T = Trace of Precipitation, MM = Missing Value Source: NWS Daily Summary

Daily Weather History Graph

Daily Weather History Graph

Search for Another Location

Airport:

Trip Planner

Search our weather history database for the weather conditions in past years. The results will help you decide how hot, cold, wet, or windy it might be!

Date:

Astronomy

Feb. 23, 2014 Rise Set
Actual Time 6:54 AM CST 6:07 PM CST
Civil Twilight 6:28 AM CST 6:33 PM CST
Nautical Twilight 5:59 AM CST 7:02 PM CST
Astronomical Twilight 5:29 AM CST 7:32 PM CST
Moon 1:47 AM CST (2/23) 12:17 PM CST (2/23)
Length of Visible Light 12h 04m
Length of Day
11h 12m
Last Quarter, 38% of the Moon is Illuminated
Feb 23
Last Quarter
Mar 1
New
Mar 8
First Quarter
Mar 16
Full
Mar 23
Last Quarter

Hourly Weather History & Observations

Time (CST) Temp. Windchill Dew Point Humidity Pressure Visibility Wind Dir Wind Speed Gust Speed Precip Events Conditions
12:53 AM 48.9 °F - 34.0 °F 56% 29.89 in 10.0 mi Calm Calm - N/A   Clear
1:53 AM 46.9 °F - 34.0 °F 61% 29.88 in 10.0 mi Calm Calm - N/A   Clear
2:53 AM 45.0 °F 42.6 °F 35.1 °F 68% 29.88 in 10.0 mi ENE 4.6 mph - N/A   Clear
3:53 AM 46.0 °F - 35.1 °F 66% 29.88 in 10.0 mi Calm Calm - N/A   Clear
4:53 AM 46.0 °F - 34.0 °F 63% 29.90 in 10.0 mi Calm Calm - N/A   Clear
5:53 AM 43.0 °F 41.3 °F 34.0 °F 71% 29.92 in 10.0 mi ENE 3.5 mph - N/A   Clear
6:53 AM 43.0 °F - 34.0 °F 71% 29.93 in 10.0 mi Calm Calm - N/A   Scattered Clouds
7:53 AM 46.9 °F - 37.0 °F 68% 29.95 in 10.0 mi Calm Calm - N/A   Overcast
8:53 AM 48.9 °F - 36.0 °F 61% 29.98 in 10.0 mi NNE 5.8 mph - N/A   Overcast
9:53 AM 53.1 °F - 37.0 °F 55% 30.00 in 10.0 mi NNE 5.8 mph - N/A   Overcast
10:53 AM 55.9 °F - 35.1 °F 45% 30.02 in 10.0 mi North 8.1 mph - N/A   Overcast
11:53 AM 55.0 °F - 35.1 °F 47% 30.04 in 10.0 mi NNW 9.2 mph - N/A   Overcast
12:53 PM 55.0 °F - 36.0 °F 49% 30.05 in 10.0 mi North 10.4 mph - N/A   Overcast
1:53 PM 55.0 °F - 37.0 °F 51% 30.06 in 10.0 mi North 12.7 mph - N/A   Overcast
2:53 PM 55.0 °F - 37.0 °F 51% 30.08 in 10.0 mi NNE 10.4 mph - N/A   Overcast
3:53 PM 55.9 °F - 37.9 °F 51% 30.09 in 10.0 mi North 8.1 mph - N/A   Overcast
4:53 PM 53.1 °F - 37.9 °F 57% 30.12 in 10.0 mi NNE 11.5 mph - N/A   Overcast
5:53 PM 52.0 °F - 37.0 °F 57% 30.14 in 10.0 mi East 5.8 mph - N/A   Overcast
6:53 PM 51.1 °F - 35.1 °F 54% 30.14 in 10.0 mi ESE 5.8 mph - N/A   Overcast
7:53 PM 45.0 °F 41.2 °F 35.1 °F 68% 30.17 in 10.0 mi ENE 6.9 mph - N/A   Clear
8:53 PM 43.0 °F 38.8 °F 35.1 °F 74% 30.19 in 10.0 mi NE 6.9 mph - N/A   Clear
9:53 PM 41.0 °F 37.1 °F 34.0 °F 76% 30.19 in 10.0 mi NE 5.8 mph - N/A   Clear
10:53 PM 39.9 °F 35.1 °F 33.1 °F 77% 30.21 in 10.0 mi NE 6.9 mph - N/A   Clear
11:53 PM 37.0 °F 32.4 °F 33.1 °F 86% 30.21 in 10.0 mi ENE 5.8 mph - N/A   Clear